www.pogodaiklimat.ru

Погода и климат >> Архив погоды >> Россия >> Крым >> Симферополь


АРХИВ ПОГОДЫ в Симферополе

Время (UTC), дата Ветер
(напр.,м/с)
 
Видим.   Явления Облачность Т
(С)
Тd
(С)
f
(%)
Тe
(С)
Тes
(С)
Комфортность P
(гПа)
Po
(гПа)
Тmin
(С)
Tmax
(С)
R
(мм)
R24
(мм)
S
(см)
15 11.04 С 2 10 км слаб. ливневой дождь 10/6 1000 м
[Cb calv Ac und]
+13.1 +11.5 90 +12 +12 тепло 1010.1 988.6 3
18 11.04 ЮЗ 3 10 км {ливн. осадки} 10/10 180 м
[St]
+10.5 +10.3 99 +8 +8 по сезону 1011.6 989.9 +15.4 3
21 11.04 Ю 1 10 км 10/10 210 м
[St]
+10.2 +9.9 98 +10 +10 тепло 1011.6 989.9
00 12.04 ЮВ 2 6000 м дымка 10/10 240 м
[St]
+8.8 +8.4 97 +7 +7 тепло 1011.8 990.0
03 12.04 ЮВ 2 10 км 10/10 750 м
[Sc]
+9.4 +8.5 94 +8 +8 по сезону 1011.7 989.9 +8.6 0.3
06 12.04 ЮВ 2 10 км 10/8 1470 м
[Sc Ac und]
+11.3 +9.4 88 +10 +10 по сезону 1011.5 989.9 +8.5
09 12.04 СВ 4 10 км слаб. дождь 10/3 1200 м
[Frnb As op]
+12.0 +10.6 91 +10 +11 по сезону 1011.5 989.9
12 12.04 ЮВ 2 6000 м слаб. дождь 10/8 870 м
[Frnb As op]
+11.5 +10.6 94 +10 +11 прохладно 1011.4 989.8
15 12.04 ЮЗ 5 10 км {дождь} 10/10 180 м
[St]
+10.7 +10.4 98 +8 +8 по сезону 1012.0 990.3 4
18 12.04 ЮЗ 5 100 м туман {дождь} ?/? +10.0 +10.0 100 +7 +7 по сезону 1013.6 991.8 +12.2 4
21 12.04 ЮЗ 3 10 км {морось, туман} 10/10 90 м
[St]
+9.5 +9.1 97 +7 +7 по сезону 1014.2 992.4
00 13.04 ЮЗ 4 10 км {морось, туман} 10/10 180 м
[St]
+9.3 +9.2 99 +6 +6 по сезону 1014.1 992.3
03 13.04 ЮЗ 2 10 км 10/10 240 м
[St]
+9.1 +8.6 97 +7 +7 по сезону 1014.2 992.3 +9.0 0.0
06 13.04 Ю 2 10 км в посл. час дождь 10/10 700 м
[Sc]
+9.8 +9.0 95 +8 +8 по сезону 1014.2 992.4 +9.0 0.0
09 13.04 Ю 2 5000 м слаб. дождь 10/8 600 м
[Frnb As op]
+10.9 +10.1 95 +9 +10 по сезону 1014.7 993.0
12 13.04 Ю 1 3900 м дымка {дождь} 10/10 150 м
[St]
+11.8 +11.3 97 +12 +12 по сезону 1015.0 993.3
15 13.04 В 1 10 км {морось} 10/5 300 м
[St Ci fib]
+13.5 +11.4 87 +14 +14 тепло 1013.5 992.0 4
18 13.04 В 3 5000 м дымка 10/0
[Ac und]
+11.5 +11.3 99 +10 +10 тепло 1014.4 992.7 +13.9 4
21 13.04 СВ 2 2400 м дымка 10/0
[Ac und]
+9.7 +9.6 99 +8 +8 тепло 1013.4 991.6
00 14.04 В 3 1800 м дымка 10/5 210 м
[St Ac und]
+9.8 +9.6 99 +7 +7 тепло 1012.6 990.8
03 14.04 СВ 3 6000 м слаб. дождь 10/3 1300 м
[Frnb As op]
+10.1 +9.8 98 +8 +8 по сезону 1011.4 989.7 +9.7 0.5
06 14.04 В 5 10 км слаб. дождь 10/3 1300 м
[Frnb As op]
+11.3 +11.0 98 +8 +9 по сезону 1010.2 988.6 +9.7 4
09 14.04 СВ 7-10
{10}
10 км слаб. дождь 10/6 840 м
[Frnb As op]
+12.0 +11.5 97 +9 +9 по сезону 1008.8 987.3
12 14.04 В 3
{10}
10 км в посл. час дождь 10/10 870 м
[Sc]
+13.0 +11.6 91 +12 +12 по сезону 1007.8 986.4
15 14.04 З 2 10 км {дождь} 10/8 960 м
[Sc Ac und]
+12.4 +12.1 98 +11 +11 по сезону 1007.1 985.7 8
18 14.04 СЗ 2 5000 м дымка {дождь} 10/10 720 м
[Sc]
+10.8 +10.4 97 +9 +9 тепло 1007.8 986.2 +13.2 5
21 14.04 штиль 0 1800 м слаб. морось {туман} 10/10 90 м
[St]
+10.6 +10.4 99 +10 +10 тепло 1007.5 985.9
00 15.04 Ю 3 2900 м в посл. час морось {туман} 10/10 240 м
[St]
+10.5 +10.1 97 +8 +8 тепло 1006.9 985.3
03 15.04 Ю 5 10 км {морось} 10/10 240 м
[St]
+9.3 +8.8 97 +6 +6 по сезону 1006.6 984.9 +9.2 0.9
06 15.04 Ю 7-12
{12}
10 км в посл. час морось 10/10 150 м
[St]
+9.0 +8.8 99 +5 +5 прохладно 1007.1 985.4 +8.9 0.6
09 15.04 ЮЗ 9-13
{15}
10 км слаб. морось 10/10 150 м
[St]
+8.8 +8.4 97 +4 +4 холодно 1008.5 986.7
12 15.04 ЮЗ 7
{13}
10 км в посл. час морось 10/10 150 м
[St]
+8.2 +7.8 97 +4 +4 очень
холодно
1009.8 988.0
15 15.04 З 5 1400 м сильн. морось 10/10 90 м
[St]
+6.5 +6.4 99 +2 +2 очень
холодно
1010.9 988.9 1
18 15.04 З 3 2300 м морось 10/10 90 м
[St]
+5.8 +5.6 99 +2 +2 прохладно 1012.5 990.4 +9.3 2
21 15.04 З 4 3900 м слаб. морось 10/10 120 м
[St]
+5.5 +5.3 99 +1 +1 прохладно 1013.0 990.9
00 16.04 З 5 10 км слаб. дождь {морось} 10/8 500 м
[Frnb As op]
+5.2 +5.1 99 0 0 прохладно 1013.3 991.1
03 16.04 ЮЗ 4 10 км слаб. морось {дождь} 10/10 180 м
[St]
+5.4 +5.1 98 +1 +1 прохладно 1013.4 991.3 +5.0 3
06 16.04 ЮЗ 5 10 км {дождь, морось} 10/10 720 м
[Sc]
+6.9 +5.1 88 +3 +3 холодно 1013.6 991.6 +5.0 2
09 16.04 ЮЗ 5
{10}
10 км 10/10 480 м
[St]
+7.2 +4.8 85 +3 +3 очень
холодно
1014.3 992.3
12 16.04 ЮЗ 7
{11}
10 км 8/8 750 м
[Sc]
+9.4 +3.6 67 +6 +6 холодно 1013.8 991.9
15 16.04 З 5
{11}
10 км 5/5 630 м
[Sc]
+7.9 +3.9 76 +4 +5 холодно 1014.5 992.5 0.0
18 16.04 ЮЗ 2 10 км 10/10 1000 м
[Sc]
+5.9 +4.4 90 +3 +3 прохладно 1016.0 993.8 +10.4
21 16.04 ЮВ 2 10 км 10/10 1080 м
[Sc]
+5.6 +4.4 92 +3 +3 по сезону 1015.7 993.5
00 17.04 ЮЗ 1 10 км 10/10 1020 м
[Sc]
+6.1 +4.4 89 +5 +5 по сезону 1015.1 993.0
03 17.04 СВ 2 10 км 10/10 930 м
[Sc]
+6.0 +5.1 94 +3 +3 прохладно 1015.0 992.9 +4.9
06 17.04 СВ 3 10 км 10/10 1140 м
[Sc]
+6.8 +5.0 88 +4 +4 прохладно 1015.8 993.7 +4.9
09 17.04 С 3 10 км 10/10 800 м
[Sc]
+9.3 +4.7 73 +7 +7 прохладно 1016.4 994.5
12 17.04 С 4 10 км 10/10 800 м
[Sc]
+10.9 +6.5 74 +9 +9 прохладно 1016.7 994.9
15 17.04 С 4 5000 м слаб. морось {дождь} 10/10 300 м
[St]
+8.5 +7.7 95 +5 +5 прохладно 1018.0 996.0 0.3
18 17.04 В 8-13
{12}
4600 м слаб. морось {дождь} 10/10 180 м
[St]
+8.5 +8.1 97 +4 +4 по сезону 1018.9 996.9 +11.4 1
21 17.04 В 9-12
{13}
10 км слаб. морось {дождь} 10/10 270 м
[St]
+7.1 +6.5 96 +2 +2 прохладно 1020.1 997.9
00 18.04 СВ 8-10
{13}
10 км {дождь, морось} 10/10 720 м
[Sc]
+6.7 +5.8 94 +1 +1 прохладно 1020.3 998.1
03 18.04 СВ 6
{12}
10 км 10/10 960 м
[Sc]
+5.7 +4.5 92 +1 +1 холодно 1020.7 998.4 +5.7 1
06 18.04 СВ 9-13
{12}
10 км 10/10 870 м
[Sc]
+6.6 +4.3 85 +1 +1 холодно 1021.5 999.3 +5.7 0.3
09 18.04 СВ 11-14
{14}
10 км 10/10 630 м
[Sc]
+6.2 +1.9 74 0 0 очень
холодно
1022.6 1000.3
12 18.04 СВ 10-13
{14}
10 км 10/8 930 м
[Sc Ac und]
+7.3 +0.3 61 +2 +2 очень
холодно
1022.3 1000.1

 

Местоположение метеостанции Симферополь (Крым, Россия): широта 45.03 долгота 33.97 высота над уровнем моря 181 м.

В архиве по умолчанию представлена погода в Симферополе за последнюю неделю. Архивные данные за месяц целиком и за предыдущие месяцы, начиная с января 2011 года, Вы можете получить, выбрав интересующий диапазон дат из раскрывающегося списка и нажав кнопку "Ввод!".


*Определитесь, кто Вы:
робот инопланетянин человек

Внимание! Время в таблицах - всемирное. Для получения местного времени необходимо прибавить поправку, которая равна 3 ч.

Смотрите также архив погоды в соседних городах и на ближайших метеорологических станциях:

Погода в Симферополе город (Крым, Россия) (15 км)
Погода в Почтовом (Крым, Россия) (22 км)
Погода на Ангарском Перевале (Крым, Россия) (43 км)
Погода в Белогорске (Крым, Россия) (50 км)
Погода в Евпатории (Крым, Россия) (50 км)
Погода в Алуште (Крым, Россия) (52 км)
Погода в Севастополе (город Севастополь, Россия) (57 км)
Погода в Клепинино (Крым, Россия) (58 км)
Погода в Никитском саду (Крым, Россия) (61 км)
Погода на Ай-Петри (Крым, Россия) (63 км)

Пояснения к столбцам:

Ветер - указаны скорость ветра в м/с - средняя за 10 мин, порывы в срок и между сроками (в фигурных скобках) и направление, откуда дует ветер: С - северный, СВ - северо-восточный, В - восточный, ЮВ - юго-восточный, Ю - южный, ЮЗ - юго-западный, З - западный, СЗ - северо-западный.
Видимость - горизонтальная дальность видимости в метрах или километрах. При видимости от 1 до 10 км при отсутствии осадков обычно наблюдается дымка, при ухудшении видимости до 1 км и менее - туман. В сухую погоду видимость может ухудшаться дымом, пылью или мглою.
Явления - указаны атмосферные явления, наблюдавшиеся в срок или в последний час перед сроком; фигурными скобками обозначены явления, наблюдавшиеся между сроками (за 1-3 часа до срока); квадратными скобками обозначены град или гололедные отложения с указанием их диаметра в мм.
Облачность - указаны через наклонную черту общая и нижняя облачность в баллах и высота нижней границы облаков в метрах; квадратными скобками обозначены формы облаков: Ci - перистые, Cs - перисто-слоистые, Cc - перисто-кучевые, Ac - высококучевые, As - высокослоистые, Sc - слоисто-кучевые, Ns - слоисто-дождевые, Cu - кучевые, Cb - кучево-дождевые. Подробнее классификацию облаков см. в Атласе облаков (PDF).
T - Температура воздуха - температура, измеренная на высоте 2 м над землей.
Td - Температура точки росы - температура, при понижении до которой содержащийся в воздухе водяной пар достигнет насыщения.
f - Относительная влажность воздуха - влажноcть воздуха, измеренная на высоте 2 м над землей.
Te - Эффективная температура - температура, которую ощущает одетый по сезону человек в тени. Характеристика душности погоды. При расчете учитывается влияние влажности воздуха и скорости ветра на теплоощущения человека.
Tes - Эффективная температура на солнце - температура, которую ощущает человек, с поправкой на солнечный нагрев. Характеристика знойности погоды. Зависит от высоты солнца над горизонтом, облачности и скорости ветра. Ночью, в пасмурную погоду, а также при ветре 12 м/с и более поправка равна нулю.
P - Атмосферное давление - приведенное к уровню моря атмосферное давление.
Po - Атмосферное давление - измеренное на уровне метеостанции атмосферное давление.
Tmin - Минимальная температура - минимум температуры воздуха на высоте 2 м над землей.
Tmax - Максимальная температура - максимум температуры воздуха на высоте 2 м над землей.
R - Количество осадков - Количество выпавших осадков за период времени, мм. При наведении курсора мыши на число - период времени, за который выпало указанное количество осадков.
R24 - Количество осадков - Количество выпавших осадков за 24 часа, мм.
S - Снежный покров - Высота снежного покрова, см. При наведении курсора мыши на число - состояние снежного покрова и степень покрытия местности в баллах.